Location: Hains Lake
(37.8540°N, 99.8578°W)
Time: 06:14:56
(UTC+00:00)

STARLINK 1017 - Pass Details

Date: 11 December 2019
Orbit: 346 x 353 km, 53.0° (Epoch: 22 January)

Event Time Altitude Azimuth Distance (km) Brightness Sun altitude
Exits shadow 12:47:52 19° 290° (WNW) 921 4.1 -11.0°
Maximum altitude 12:49:37 41° 226° (SW) 519 3.3 -10.7°
Drops below altitude 10° 12:52:22 10° 154° (SSE) 1,300 6.3 -10.2°
Sets 12:54:25 0° 147° (SSE) 2,135 7.6 -9.8°
